Gilford, NH

9:29 PM EST on February 25, 2017 (GMT -0500)
Laconia Municipal

Weather History for KLCI - January, 2013

Change the Weather History Date:

Sunday, January 20, 2013

  Actual Average Record
Temperature  
Mean Temperature 32 °F -  
Max Temperature 44 °F 29 °F 55 °F (1996)
Min Temperature 21 °F 10 °F -23 °F (1994)
Degree Days  
Heating Degree Days 32    
Moisture  
Dew Point 17 °F    
Average Humidity 56    
Maximum Humidity 86    
Minimum Humidity 33    
Precipitation  
Precipitation 0.00 in - - ()
Sea Level Pressure  
Sea Level Pressure 29.65 in    
Wind  
Wind Speed 8 mph (WSW)    
Max Wind Speed 25 mph    
Max Gust Speed 46 mph    
Visibility 10 miles    
Events      
Averages and records for this station are not official NWS values.
T = Trace of Precipitation, MM = Missing Value Source: NWS Daily Summary

Daily Weather History Graph

Daily Weather History Graph

Search for Another Location

Airport or City:

Trip Planner

Search our weather history database for the weather conditions in past years. The results will help you decide how hot, cold, wet, or windy it might be!

Date:

Astronomy

Jan. 20, 2013 Rise Set
Actual Time 7:12 AM EST 4:41 PM EST
Civil Twilight 6:41 AM EST 5:12 PM EST
Nautical Twilight 6:06 AM EST 5:47 PM EST
Astronomical Twilight 5:32 AM EST 6:21 PM EST
Moon 11:41 AM EST (1/20) 1:41 AM EST (1/20)
Length of Visible Light 10h 31m
Length of Day
9h 28m
Waxing Gibbous, 66% of the Moon is Illuminated
Jan 20
Waxing Gibbous
Jan 26
Full
Feb 3
Last Quarter
Feb 10
New
Feb 17
First Quarter

Hourly Weather History & Observations

Time (EST) Temp. Windchill Dew Point Humidity Pressure Visibility Wind Dir Wind Speed Gust Speed Precip Events Conditions
12:15 AM 30.2 °F - 21.2 °F 69% 29.79 in 10.0 mi Calm Calm - N/A   Overcast
12:35 AM 30.2 °F 26.7 °F 21.2 °F 69% 29.79 in 10.0 mi NW 3.5 mph - N/A   Overcast
1:15 AM 30.2 °F - 21.2 °F 69% 29.78 in 10.0 mi Calm Calm - N/A   Overcast
1:35 AM 30.2 °F 26.7 °F 23.0 °F 75% 29.77 in 10.0 mi East 3.5 mph - N/A   Overcast
2:15 AM 30.2 °F - 21.2 °F 69% 29.75 in 10.0 mi Calm Calm - N/A   Mostly Cloudy
2:35 AM 30.2 °F - 21.2 °F 69% 29.74 in 10.0 mi Calm Calm - N/A   Mostly Cloudy
2:55 AM 28.4 °F - 21.2 °F 74% 29.72 in 10.0 mi Calm Calm - N/A   Partly Cloudy
3:15 AM 28.4 °F 23.3 °F 21.2 °F 74% 29.70 in 10.0 mi NW 4.6 mph - N/A   Clear
3:35 AM 26.6 °F - 21.2 °F 80% 29.71 in 10.0 mi Calm Calm - N/A   Scattered Clouds
3:55 AM 26.6 °F 22.6 °F 21.2 °F 80% 29.68 in 10.0 mi East 3.5 mph - N/A   Mostly Cloudy
4:15 AM 26.6 °F 22.6 °F 21.2 °F 80% 29.67 in 10.0 mi NW 3.5 mph - N/A   Scattered Clouds
4:35 AM 24.8 °F - 19.4 °F 80% 29.66 in 10.0 mi Calm Calm - N/A   Clear
4:55 AM 24.8 °F - 21.2 °F 86% 29.64 in 10.0 mi Calm Calm - N/A   Clear
5:15 AM 23.0 °F - 17.6 °F 80% 29.63 in 10.0 mi Calm Calm - N/A   Clear
5:35 AM 23.0 °F 18.4 °F 19.4 °F 86% 29.61 in 10.0 mi NNW 3.5 mph - N/A   Clear
5:55 AM 21.2 °F - 17.6 °F 86% 29.59 in 10.0 mi Calm Calm - N/A   Clear
6:15 AM 28.4 °F 21.2 °F 23.0 °F 80% 29.57 in 10.0 mi South 6.9 mph - N/A   Clear
6:35 AM 32.0 °F 27.5 °F 23.0 °F 69% 29.57 in 10.0 mi West 4.6 mph - N/A   Clear
6:55 AM 30.2 °F - 24.8 °F 80% 29.56 in 10.0 mi Calm Calm - N/A   Clear
7:15 AM 35.6 °F 28.0 °F 26.6 °F 70% 29.53 in 10.0 mi South 10.4 mph 16.1 mph N/A   Clear
7:55 AM 35.6 °F 28.0 °F 24.8 °F 65% 29.53 in 10.0 mi SSW 10.4 mph - N/A   Clear
8:15 AM 35.6 °F 27.5 °F 24.8 °F 65% 29.53 in 10.0 mi SW 11.5 mph 17.3 mph N/A   Clear
8:35 AM 37.4 °F 30.8 °F 26.6 °F 65% 29.52 in 10.0 mi SSW 9.2 mph 17.3 mph N/A   Clear
8:55 AM 37.4 °F 29.3 °F 24.8 °F 60% 29.51 in 10.0 mi SSW 12.7 mph 19.6 mph N/A   Clear
9:15 AM 37.4 °F 28.9 °F 26.6 °F 65% 29.50 in 10.0 mi SSW 13.8 mph 19.6 mph N/A   Clear
9:35 AM 39.2 °F 30.8 °F 26.6 °F 61% 29.49 in 10.0 mi SSW 15.0 mph 21.9 mph N/A   Clear
9:55 AM 39.2 °F 31.6 °F 26.6 °F 61% 29.48 in 10.0 mi SSW 12.7 mph 19.6 mph N/A   Clear
10:55 AM 44.6 °F 36.6 °F 26.6 °F 49% 29.46 in 10.0 mi SW 19.6 mph 26.5 mph N/A   Clear
11:15 AM 44.6 °F 37.4 °F 26.6 °F 49% 29.46 in 10.0 mi WSW 16.1 mph 24.2 mph N/A   Mostly Cloudy
11:35 AM 44.6 °F 36.4 °F 26.6 °F 49% 29.48 in 10.0 mi West 20.7 mph 27.6 mph N/A   Overcast
11:55 AM 41.0 °F 31.9 °F 28.4 °F 61% 29.50 in 10.0 mi West 19.6 mph 26.5 mph N/A   Overcast
12:15 PM 39.2 °F 30.2 °F 30.2 °F 70% 29.50 in 10.0 mi West 17.3 mph 25.3 mph N/A   Overcast
12:35 PM 39.2 °F 28.5 °F 28.4 °F 65% 29.50 in 10.0 mi WSW 24.2 mph 38.0 mph N/A   Overcast
12:55 PM 37.4 °F 27.5 °F 30.2 °F 75% 29.49 in 10.0 mi WSW 18.4 mph 26.5 mph N/A   Scattered Clouds
1:15 PM 39.2 °F 29.0 °F 26.6 °F 61% 29.49 in 10.0 mi WSW 21.9 mph 31.1 mph N/A   Clear
1:35 PM 39.2 °F 29.3 °F 23.0 °F 52% 29.50 in 10.0 mi WSW 20.7 mph 33.4 mph N/A   Clear
2:35 PM 41.0 °F 31.9 °F 15.8 °F 36% 29.54 in 10.0 mi WSW 19.6 mph 32.2 mph N/A   Clear
2:55 PM 41.0 °F 33.1 °F 14.0 °F 33% 29.55 in 10.0 mi West 15.0 mph 28.8 mph N/A   Clear
3:15 PM 39.2 °F 28.5 °F 12.2 °F 33% 29.57 in 10.0 mi WSW 24.2 mph 35.7 mph N/A   Clear
3:35 PM 37.4 °F 25.9 °F 12.2 °F 36% 29.58 in 10.0 mi WSW 25.3 mph 33.4 mph N/A   Clear
3:55 PM 37.4 °F 26.1 °F 12.2 °F 36% 29.60 in 10.0 mi WSW 24.2 mph 36.8 mph N/A   Clear
4:15 PM 37.4 °F 27.5 °F 12.2 °F 36% 29.62 in 10.0 mi WSW 18.4 mph 32.2 mph N/A   Scattered Clouds
4:35 PM 35.6 °F 24.5 °F 10.4 °F 35% 29.65 in 10.0 mi West 20.7 mph 31.1 mph N/A   Partly Cloudy
4:55 PM 33.8 °F 22.8 °F 10.4 °F 38% 29.67 in 10.0 mi West 18.4 mph 34.5 mph N/A   Clear
5:35 PM 32.0 °F 20.1 °F 10.4 °F 41% 29.71 in 10.0 mi West 19.6 mph 38.0 mph N/A   Mostly Cloudy
5:55 PM 30.2 °F 18.5 °F 8.6 °F 40% 29.72 in 10.0 mi West 17.3 mph 29.9 mph N/A   Partly Cloudy
6:15 PM 30.2 °F 20.8 °F 8.6 °F 40% 29.73 in 10.0 mi West 11.5 mph 24.2 mph N/A   Scattered Clouds
6:35 PM 30.2 °F 20.2 °F 8.6 °F 40% 29.73 in 10.0 mi West 12.7 mph 27.6 mph N/A   Partly Cloudy
6:55 PM 28.4 °F 15.8 °F 8.6 °F 43% 29.73 in 10.0 mi West 18.4 mph 21.9 mph N/A   Scattered Clouds
7:15 PM 28.4 °F 17.5 °F 8.6 °F 43% 29.74 in 10.0 mi West 13.8 mph 21.9 mph N/A   Partly Cloudy
7:35 PM 28.4 °F 18.0 °F 8.6 °F 43% 29.74 in 10.0 mi West 12.7 mph 25.3 mph N/A   Partly Cloudy
7:55 PM 28.4 °F 15.8 °F 8.6 °F 43% 29.75 in 10.0 mi West 18.4 mph 27.6 mph N/A   Partly Cloudy
8:35 PM 28.4 °F 14.1 °F 8.6 °F 43% 29.78 in 10.0 mi West 24.2 mph 46.0 mph N/A   Clear
8:55 PM 26.6 °F 12.0 °F 5.0 °F 40% 29.78 in 10.0 mi West 23.0 mph 35.7 mph N/A   Clear
9:15 PM 26.6 °F 14.7 °F 3.2 °F 37% 29.80 in 10.0 mi West 15.0 mph 32.2 mph N/A   Clear
9:35 PM 24.8 °F 10.3 °F 1.4 °F 36% 29.81 in 10.0 mi West 20.7 mph 34.5 mph N/A   Clear
9:55 PM 24.8 °F 11.9 °F -0.4 °F 34% 29.82 in 10.0 mi West 16.1 mph 31.1 mph N/A   Clear
10:15 PM 24.8 °F 13.4 °F -0.4 °F 34% 29.83 in 10.0 mi West 12.7 mph 27.6 mph N/A   Clear
10:35 PM 24.8 °F 10.7 °F -0.4 °F 34% 29.84 in 10.0 mi West 19.6 mph 35.7 mph N/A   Clear
11:15 PM 23.0 °F 10.6 °F -0.4 °F 36% 29.86 in 10.0 mi West 13.8 mph 21.9 mph N/A   Clear
11:35 PM 21.2 °F 7.8 °F -2.2 °F 36% 29.86 in 10.0 mi West 15.0 mph 31.1 mph N/A   Clear
11:55 PM 21.2 °F 7.8 °F -2.2 °F 36% 29.87 in 10.0 mi West 15.0 mph 27.6 mph N/A   Clear